[[{"header":{"parameterUnit":"m.s-1","parameterCategory":1,"la1":30.2991,"la2":30.254,"lo1":-89.0895,"lo2":-89.0444,"dy":0.0017,"dx":0.0017,"nx":28,"ny":28,"refTime":"2025-01-30T09:00:00:Z","depth":0,"parameterNumber":2,"parameterNumberName":"U-component_of_WINDS"},"data":[0,0,0,0,0,0,0,0,0,0,0,0,0,0,0,0,0,0,0,0,0,0,0,0,0,0,0,0,0,0,0,0,0,0,0,0,0,0,0,0,0,0,0,0,0,0,0,0,0,0,0,0,0,0,0,0,0,0,1.3566,1.3566,0,1.3515,1.3515,1.3514,1.3454,1.3453,1.3452,1.3451,1.3401,1.34,1.34,0,0,0,0,0,0,0,0,0,0,0,0,0,1.3615,1.3615,1.3567,1.3566,1.3565,1.3515,1.3515,1.3514,1.3454,1.3453,1.3452,1.3451,1.3401,1.3401,1.34,0,0,0,0,0,0,0,0,0,0,0,0,0,1.3582,1.3614,1.3567,1.3529,1.3526,1.3515,1.3514,1.3514,1.3454,1.3453,1.3452,1.345,1.3401,1.3401,1.34,1.3423,0,0,1.3398,1.3397,0,0,0,0,0,0,0,0,1.3584,1.358,1.3536,1.3532,1.3528,1.3489,1.3513,1.3483,1.3455,1.3482,1.3451,1.345,1.3432,1.3428,1.3422,1.342,1.3418,1.3398,1.3397,1.3397,1.3397,0,0,0,0,0,0,0,1.3586,1.3582,1.3546,1.3535,1.353,1.3516,1.351,1.3507,1.3465,1.3479,1.3475,1.3469,1.3429,1.3423,1.342,1.3418,1.3398,1.3397,1.3396,1.3396,1.3433,1.3434,0,0,0,0,0,0,1.3594,1.3585,1.3548,1.3545,1.3553,1.3516,1.3509,1.3503,1.3465,1.3458,1.347,1.3467,1.3425,1.3421,1.3418,1.3443,1.3397,1.3396,1.3396,1.3432,1.3433,1.3435,0,0,0,0,0,0,1.3595,1.3591,1.355,1.3563,1.3557,1.3517,1.3511,1.3503,1.3496,1.3458,1.3451,1.3471,1.3423,1.3419,1.3422,1.344,1.3396,1.3395,1.343,1.3432,1.3434,1.3493,0,0,0,0,0,0,1.3597,1.3592,1.36,1.3564,1.3557,1.3554,1.3512,1.3503,1.3495,1.3489,1.3457,1.345,1.3422,1.3423,1.3421,1.3438,1.3395,1.3428,1.3431,1.3434,1.3489,1.3496,1.3503,0,0,0,0,0,1.3599,1.3619,1.3601,1.3596,1.3565,1.3555,1.3551,1.3517,1.3497,1.3504,1.348,1.3451,1.3439,1.3424,1.3421,1.3439,1.3427,1.343,1.3433,1.3486,1.3495,1.3503,0,0,0,0,0,0,1.3658,1.3613,1.3593,1.3601,1.3583,1.3545,1.3554,1.3528,1.3515,1.3511,1.347,1.3463,1.3471,1.3455,1.344,1.3459,1.3429,1.3431,1.3469,1.3478,1.3485,1.3489,1.3394,0,0,0,0,0,1.3672,1.3667,1.3628,1.364,1.3632,1.3595,1.3589,1.3565,1.3544,1.3536,1.3512,1.3493,1.3485,1.348,1.3471,1.3486,1.3479,1.3497,1.3504,1.351,1.3513,1.352,1.3528,1.3445,1.3445,1.3445,0,0,1.3702,1.3676,1.3676,1.3651,1.3634,1.363,1.3588,1.3586,1.3584,1.3536,1.3537,1.3519,1.3495,1.3505,1.3508,1.3491,1.3534,1.3514,1.3519,1.3518,1.3524,1.3532,1.3539,1.3448,1.3447,1.3447,0,0,1.3753,1.3733,1.374,1.3724,1.3698,1.3673,1.3675,1.3642,1.3628,1.3628,1.3592,1.3589,1.3575,1.356,1.3551,1.3597,1.3571,1.3595,1.3632,1.364,1.3647,1.3652,1.3669,1.3676,1.3598,1.3598,1.3599,0,1.3792,1.3785,1.3748,1.3748,1.3739,1.3695,1.3702,1.3688,1.3661,1.3656,1.3638,1.362,1.3602,1.3607,1.3618,1.3612,1.3614,1.3599,1.3648,1.3654,1.3658,1.3674,1.3681,1.3602,1.3601,1.3601,1.3601,0,1.3835,1.3831,1.384,1.3814,1.3806,1.381,1.3774,1.3771,1.3747,1.3725,1.3726,1.3702,1.3687,1.3686,1.3664,1.3689,1.368,1.3656,1.3624,1.367,1.3684,1.369,1.3606,1.3605,1.3604,1.3603,0,0,1.3923,1.3876,1.388,1.3868,1.3837,1.3833,1.3835,1.382,1.3818,1.3801,1.3802,1.3792,1.377,1.3759,1.3734,1.3741,1.378,1.3716,1.3715,1.3729,1.3807,1.3826,1.3834,1.3762,1.3763,1.3764,1.381,0,1.3968,1.3969,1.3936,1.3947,1.3943,1.3901,1.3903,1.3885,1.3864,1.3858,1.3835,1.3829,1.38,1.3793,1.3798,1.3774,1.3795,1.3771,1.3764,1.3764,1.3772,1.3841,1.386,1.3904,1.3815,1.3816,1.3816,0,1.4022,1.4007,1.4018,1.3986,1.3983,1.3986,1.3969,1.3964,1.3942,1.3926,1.3915,1.3887,1.3888,1.3858,1.3859,1.3843,1.3838,1.3827,1.3828,1.3826,1.3793,1.3842,1.3918,1.3925,1.3825,1.3824,1.3823,0,1.4085,1.4068,1.4072,1.4063,1.4026,1.4029,1.4014,1.3991,1.3984,1.397,1.3965,1.3952,1.3944,1.3935,1.3904,1.3885,1.3909,1.3877,1.3897,1.3898,1.3904,1.3904,1.3981,1.3901,1.3901,1.3901,1.3901,0,1.414,1.4148,1.41,1.4103,1.4111,1.4073,1.4082,1.4063,1.4043,1.4041,1.4005,1.4004,1.3963,1.3958,1.3934,1.394,1.3936,1.3925,1.3918,1.3928,1.393,1.3925,1.3921,1.3902,1.3902,1.3902,1.3901,0,1.4212,1.418,1.4182,1.4147,1.4138,1.4146,1.4116,1.4117,1.4094,1.4093,1.4091,1.4055,1.4048,1.4016,1.4001,1.3985,1.3998,1.3985,1.4005,1.4001,1.4024,1.4022,1.41,1.4109,1.4023,1.4024,1.4025,0,1.4249,1.4254,1.422,1.4216,1.4203,1.4197,1.419,1.4153,1.4147,1.4123,1.4128,1.4117,1.4107,1.4097,1.407,1.4059,1.4046,1.4074,1.4044,1.4054,1.4047,1.4047,1.4047,1.408,1.4082,1.4082,1.4083,0,1.4319,1.4303,1.4294,1.4279,1.4271,1.4258,1.4243,1.4242,1.4201,1.4197,1.4189,1.4181,1.4165,1.4156,1.414,1.4125,1.4098,1.4093,1.4097,1.4107,1.4119,1.4113,1.4023,1.4091,1.409,1.409,1.4089,1.4089,1.4375,1.4377,1.4354,1.4345,1.433,1.4316,1.4316,1.4293,1.4285,1.427,1.4249,1.4243,1.4222,1.4198,1.4185,1.4181,1.4166,1.4172,1.4173,1.4175,1.4181,1.412,1.4178,1.4178,1.4178,1.4177,1.4177,0,1.4443,1.4426,1.4418,1.4397,1.4391,1.4365,1.4347,1.4343,1.4339,1.4321,1.4312,1.4303,1.4293,1.4266,1.4254,1.4256,1.4243,1.4254,1.4254,1.4251,1.4195,1.4193,1.4265,1.4265,1.4265,1.4265,1.4265,1.4265,1.4477,1.4481,1.4462,1.4458,1.4441,1.4435,1.4427,1.4415,1.4401,1.4392,1.4384,1.4366,1.4345,1.4331,1.4322,1.4314,1.4311,1.4327,1.4315,1.4263,1.4255,1.4247,1.4244,1.4326,1.4326,1.4371,1.4372,1.4372]},{"header":{"parameterUnit":"m.s-1","parameterCategory":1,"la1":30.2991,"la2":30.254,"lo1":-89.0895,"lo2":-89.0444,"dy":0.0017,"dx":0.0017,"nx":28,"ny":28,"refTime":"2025-01-30T09:00:00:Z","depth":0,"parameterNumber":3,"parameterNumberName":"V-component_of_WINDS"},"data":[0,0,0,0,0,0,0,0,0,0,0,0,0,0,0,0,0,0,0,0,0,0,0,0,0,0,0,0,0,0,0,0,0,0,0,0,0,0,0,0,0,0,0,0,0,0,0,0,0,0,0,0,0,0,0,0,0,0,6.1967,6.1969,0,6.2139,6.2141,6.2143,6.2158,6.2157,6.2155,6.2153,6.2325,6.2331,6.2337,0,0,0,0,0,0,0,0,0,0,0,0,0,6.1648,6.1654,6.1967,6.1969,6.1971,6.2138,6.2141,6.2143,6.2159,6.2157,6.2154,6.2152,6.2323,6.233,6.2338,0,0,0,0,0,0,0,0,0,0,0,0,0,6.18,6.1656,6.1966,6.1999,6.2004,6.2138,6.2141,6.2144,6.2159,6.2157,6.2154,6.2151,6.2321,6.233,6.2339,6.2451,0,0,6.2368,6.2372,0,0,0,0,0,0,0,0,6.1791,6.1811,6.1992,6.1997,6.2003,6.2125,6.2092,6.2247,6.216,6.21,6.2153,6.215,6.226,6.2274,6.2313,6.2459,6.2467,6.2369,6.2374,6.2378,6.2381,0,0,0,0,0,0,0,6.1781,6.1804,6.2035,6.1995,6.2001,6.2004,6.2023,6.2121,6.2193,6.2105,6.2107,6.2127,6.2263,6.2303,6.2317,6.2469,6.2368,6.2377,6.2382,6.2386,6.2718,6.2721,0,0,0,0,0,0,6.1764,6.1795,6.2029,6.204,6.1888,6.2012,6.2033,6.2088,6.2192,6.2205,6.2129,6.2127,6.2289,6.2306,6.2323,6.2463,6.2378,6.2387,6.2392,6.2715,6.2719,6.2722,0,0,0,0,0,0,6.1758,6.1785,6.2022,6.1918,6.1949,6.202,6.2082,6.2093,6.2134,6.221,6.2223,6.2158,6.2287,6.231,6.242,6.2469,6.2391,6.24,6.2711,6.2716,6.272,6.2743,0,0,0,0,0,0,6.1748,6.1783,6.1827,6.1919,6.1954,6.2118,6.2085,6.2098,6.2151,6.2149,6.2241,6.2253,6.2287,6.2406,6.2429,6.248,6.2407,6.2707,6.2713,6.2719,6.2738,6.2748,6.2756,0,0,0,0,0,6.1737,6.1825,6.1829,6.1857,6.2011,6.212,6.214,6.2178,6.2154,6.2199,6.2248,6.225,6.2459,6.2417,6.2443,6.2498,6.2704,6.2711,6.2718,6.2734,6.2746,6.2756,0,0,0,0,0,0,6.1735,6.1838,6.1843,6.1964,6.2034,6.2123,6.2181,6.2189,6.2266,6.2262,6.2304,6.2325,6.2434,6.2477,6.2428,6.2613,6.2579,6.2592,6.2582,6.2594,6.2602,6.2591,6.2415,0,0,0,0,0,6.1749,6.183,6.1915,6.2013,6.2048,6.2108,6.2157,6.2181,6.2254,6.2283,6.234,6.241,6.2492,6.2544,6.2623,6.2743,6.2764,6.2794,6.2803,6.281,6.2821,6.2889,6.2904,6.2746,6.2745,6.2745,0,0,6.1778,6.1844,6.1893,6.2015,6.2071,6.2154,6.2133,6.2221,6.2283,6.2296,6.2405,6.2449,6.2529,6.2646,6.2699,6.2685,6.2869,6.2819,6.2824,6.2832,6.2898,6.2913,6.2926,6.275,6.275,6.2749,0,0,6.1874,6.1932,6.2021,6.2079,6.2165,6.2205,6.2226,6.2315,6.2345,6.2455,6.2467,6.254,6.2679,6.2737,6.2785,6.2903,6.2908,6.2927,6.2975,6.3041,6.3054,6.3065,6.3109,6.3124,6.2938,6.2938,6.2938,0,6.1899,6.2026,6.2065,6.2155,6.2208,6.2225,6.2316,6.2369,6.2476,6.2512,6.2494,6.2671,6.2726,6.2856,6.2885,6.2922,6.2949,6.2918,6.3049,6.3061,6.3072,6.3114,6.3131,6.294,6.2939,6.2939,6.2939,0,6.2053,6.2141,6.2202,6.2308,6.2368,6.2457,6.2509,6.2565,6.2583,6.2624,6.2736,6.2803,6.2897,6.2929,6.2946,6.3063,6.3051,6.304,6.3007,6.3088,6.3129,6.3145,6.2942,6.2942,6.2941,6.2941,0,0,6.2154,6.2281,6.2303,6.2352,6.2449,6.2517,6.2606,6.27,6.2748,6.2821,6.2898,6.3015,6.3006,6.306,6.3084,6.3142,6.3234,6.3124,6.3127,6.3144,6.3368,6.3377,6.3395,6.3237,6.324,6.3242,6.3362,0,6.2263,6.2425,6.2464,6.2602,6.2684,6.2701,6.278,6.2847,6.2888,6.2962,6.3006,6.309,6.3071,6.3104,6.3161,6.321,6.3279,6.3202,6.3309,6.3312,6.3291,6.3416,6.3427,6.3536,6.3378,6.338,6.3382,0,6.2412,6.2491,6.2639,6.2727,6.2762,6.2832,6.2922,6.2992,6.3069,6.3094,6.3155,6.3173,6.3267,6.3228,6.3357,6.3304,6.3349,6.338,6.3385,6.3398,6.3354,6.3435,6.3572,6.3589,6.3407,6.3405,6.3404,0,6.2474,6.2616,6.2724,6.2765,6.2869,6.2918,6.2963,6.3038,6.3092,6.3169,6.3205,6.3291,6.3338,6.3404,6.3445,6.3413,6.3572,6.3536,6.3597,6.3596,6.3631,6.3629,6.3779,6.3657,6.3656,6.3656,6.3656,0,6.2593,6.2683,6.2753,6.282,6.2921,6.2963,6.3062,6.3107,6.3173,6.3248,6.3266,6.3336,6.3385,6.3461,6.3493,6.3597,6.3617,6.364,6.3648,6.3641,6.3638,6.3673,6.3667,6.366,6.3659,6.3659,6.3658,0,6.268,6.273,6.2849,6.2939,6.2963,6.3034,6.311,6.3175,6.3216,6.331,6.3335,6.3399,6.349,6.3536,6.3649,6.367,6.3788,6.379,6.3763,6.3767,6.3825,6.382,6.4005,6.4032,6.3889,6.3891,6.3892,0,6.2754,6.2824,6.2921,6.2974,6.3021,6.3105,6.3161,6.3204,6.3262,6.3355,6.3408,6.35,6.3577,6.3721,6.3776,6.3863,6.3868,6.3927,6.3882,6.3872,6.3872,6.3869,6.3877,6.3936,6.3937,6.3939,6.3939,0,6.288,6.2902,6.2983,6.3073,6.314,6.3212,6.3284,6.3325,6.338,6.3443,6.3538,6.3597,6.3713,6.3804,6.3895,6.394,6.395,6.3953,6.3972,6.3966,6.3949,6.3961,6.3787,6.3949,6.3948,6.3948,6.3947,6.3947,6.2965,6.3029,6.3108,6.3198,6.3256,6.3323,6.3389,6.3439,6.3519,6.3618,6.3638,6.3738,6.3813,6.3936,6.3984,6.4063,6.405,6.4077,6.4084,6.4091,6.4095,6.3934,6.4079,6.4078,6.4078,6.4078,6.4078,0,6.3094,6.3146,6.3228,6.3329,6.34,6.3403,6.3482,6.3541,6.3629,6.3699,6.3774,6.3883,6.3972,6.4035,6.4125,6.4176,6.4182,6.4198,6.4196,6.4207,6.41,6.4076,6.4192,6.4192,6.4192,6.4191,6.4191,6.4191,6.317,6.3279,6.3311,6.3449,6.35,6.36,6.3645,6.3706,6.3763,6.3884,6.3959,6.4,6.4067,6.4163,6.4244,6.426,6.4294,6.431,6.4327,6.4226,6.4214,6.4203,6.418,6.4316,6.4316,6.4427,6.4428,6.4429]}]]